Find Starlink 34760

NORAD ID: 65359 Int'l Des: 2025-190 Owner: SPXS Country: US Constellation: starlink operational
LEOCIRCULAR

現在のビュー

3D地球を読み込み中...

About Starlink 34760

Starlink 34760 (NORAD 65359) is a starlink constellation satellite (v2 mini) launched Aug 28, 2025 by SPXS of US. It operates in LEO, CIRCULAR orbit with a mass of 575.00 kg.

Starlink 34760について

説明を読み込み中...

次回通過

Passes for default location (London). Set your location on the main map for personalized predictions.

高度履歴

Loading altitude history...

軌道要素

1 65359U 25190J 26195.56707386 .00001540 00000-0 64098-4 0 9991
2 65359 53.1600 298.6366 0000628 70.9009 289.2060 15.30198189 48718
Epoch: Jul 14, 2026 • Age: 8 hours

現在のステータス

高度 484.5 km
遠地点 / 近地点 N/A
速度 7.62 km/s
衛星直下点 -30.00°S, 19.72°E
打ち上げ日 Aug 28, 2025
運用期間 0.8 years
タイプ internet

技術仕様

分類 Payload
質量 575.00 kg
乾燥質量 530.00 kg
総質量 575.00 kg
長さ 0.30 m
直径 4.10 m
スパン 29.00 m
形状 Box + pan
製造者 SPXS
バスタイプ Starlink V2MO
フェーズステータス In Orbit
所有者/国 SPXS/US

Most Searched